This demonstration page uses our WeatherBlox Daily Observations layout. Learn more.

Hourly Observations for August 25, 2016

Temp ( °F °C ) Dew Point ( °F °C ) Humidity (%) Winds ( mph kmh ) Pressure ( in mb ) Visibility ( mi km ) Precip ( " mm )
12:15 am 00:15 Mostly Cloudy 62 16.5 55 12.7 78 78 N 5 7 30.09 1019 10 16.09344 0 0
12:35 am 00:35 Mostly Cloudy 61 16.3 56 13.3 83 83 Calm 30.09 1019 10 16.09344 0 0
12:55 am 00:55 Mostly Cloudy 61 16.1 56 13.2 83 83 N 5 7 30.09 1019 10 16.09344 0 0
1:15 am 01:15 Partly Cloudy 60 15.8 56 13.2 85 85 N 5 7 30.09 1019 10 16.09344 0 0
1:35 am 01:35 Clear 59 15.1 55 13 87 87 N 7 11 30.09 1019 10 16.09344 0 0
1:55 am 01:55 Clear 59 15.1 55 13 87 87 N 8 13 30.09 1019 10 16.09344 0 0
2:15 am 02:15 Clear 58 14.7 55 12.5 87 87 N 6 9 30.09 1019 10 16.09344 0 0
2:35 am 02:35 Clear 58 14.5 55 12.5 88 88 Calm 30.09 1019 10 16.09344 0 0
2:55 am 02:55 Clear 58 14.2 55 12.5 90 90 Calm 30.09 1019 10 16.09344 0 0
3:15 am 03:15 Clear 57 14.1 54 12.4 90 90 Calm 30.09 1019 10 16.09344 0 0
3:35 am 03:35 Mostly Cloudy 58 14.3 55 12.5 89 89 NW 3 6 30.09 1019 10 16.09344 0 0
3:55 am 03:55 Cloudy 57 14 54 12.3 90 90 NW 5 7 30.09 1019 10 16.09344 0 0
4:15 am 04:15 Mostly Cloudy 57 14 55 12.5 91 91 Calm 30.09 1019 10 16.09344 0 0
4:35 am 04:35 Partly Cloudy 57 13.9 55 12.5 91 91 Calm 30.09 1019 10 16.09344 0 0
4:55 am 04:55 Clear 57 14 55 12.5 91 91 NNW 3 6 30.09 1019 10 16.09344 0 0
5:15 am 05:15 Clear 58 14.2 54 12.4 89 89 Calm 30.09 1019 10 16.09344 0 0
5:35 am 05:35 Clear 57 14.1 55 12.5 90 90 Calm 30.09 1019 10 16.09344 0 0
5:55 am 05:55 Clear 57 14 55 12.6 91 91 Calm 30.09 1019 10 16.09344 0 0
6:15 am 06:15 Partly Cloudy 58 14.2 55 12.8 91 91 Calm 30.09 1019 10 16.09344 0 0
6:35 am 06:35 Partly Cloudy 58 14.2 55 12.8 91 91 N 3 6 30.09 1019 10 16.09344 0 0
6:55 am 06:55 Partly Cloudy 58 14.4 55 12.8 90 90 Calm 30.09 1019 10 16.09344 0 0
7:15 am 07:15 Mostly Cloudy 58 14.5 55 12.6 88 88 Calm 30.09 1019 10 16.09344 0 0
7:35 am 07:35 Partly Cloudy 58 14.5 55 12.7 89 89 Calm 30.09 1019 10 16.09344 0 0
7:55 am 07:55 Partly Cloudy 58 14.6 55 13 90 90 Calm 30.09 1019 10 16.09344 0 0
8:15 am 08:15 Sunny 59 15 55 13 88 88 Calm 30.12 1020 10 16.09344 0 0
8:35 am 08:35 Sunny 60 15.4 56 13.2 87 87 W 5 7 30.12 1020 10 16.09344 0 0
8:55 am 08:55 Sunny 60 15.8 55 12.8 82 82 Calm 30.12 1020 10 16.09344 0 0
9:15 am 09:15 Sunny 62 16.7 55 12.6 77 77 Calm 30.12 1020 10 16.09344 0 0
9:35 am 09:35 Sunny 64 17.5 56 13.4 77 77 NNW 6 9 30.15 1021 10 16.09344 0 0
9:55 am 09:55 Sunny 64 17.5 56 13.4 77 77 Calm 30.15 1021 10 16.09344 0 0
10:15 am 10:15 Sunny 64 18 56 13.1 73 73 Calm 30.12 1020 10 16.09344 0 0
10:35 am 10:35 Sunny 65 18.5 55 12.8 70 70 NNE 5 7 30.12 1020 10 16.09344 0 0
10:55 am 10:55 Sunny 67 19.5 55 12.9 66 66 N 7 11 30.12 1020 10 16.09344 0 0
11:15 am 11:15 Sunny 68 20.1 54 12.4 61 61 NE 7 11 30.12 1020 10 16.09344 0 0
11:35 am 11:35 Sunny 68 19.8 54 12.2 62 62 N 6 9 30.12 1020 10 16.09344 0 0
11:55 am 11:55 Sunny 69 20.5 54 12.4 60 60 NNE 8 13 30.12 1020 10 16.09344 0 0
12:15 pm 12:15 Sunny 70 20.9 54 12.1 57 57 NNE 6 9 30.12 1020 10 16.09344 0 0
12:35 pm 12:35 Sunny 70 21.2 54 12.4 57 57 Calm 30.12 1020 10 16.09344 0 0
12:55 pm 12:55 Sunny 71 21.5 55 12.5 57 57 Calm 30.09 1019 10 16.09344 0 0
1:15 pm 13:15 Sunny 71 21.7 54 12.3 55 55 Calm 30.09 1019 10 16.09344 0 0
1:35 pm 13:35 Sunny 72 22.3 54 12.2 53 53 N 5 7 30.09 1019 10 16.09344 0 0
1:55 pm 13:55 Sunny 73 22.6 54 12 51 51 Calm 30.06 1018 10 16.09344 0 0
2:15 pm 14:15 Sunny 73 22.9 53 11.7 49 49 NNE 5 7 30.06 1018 10 16.09344 0 0
2:35 pm 14:35 Sunny 74 23.2 51 10.4 44 44 NNE 6 9 30.06 1018 10 16.09344 0 0
2:55 pm 14:55 Sunny 74 23.3 51 10.4 44 44 NE 7 11 30.06 1018 10 16.09344 0 0
3:15 pm 15:15 Sunny 74 23.5 53 11.5 47 47 NE 6 9 30.06 1018 10 16.09344 0 0
3:35 pm 15:35 Sunny 75 23.8 53 11.6 46 46 NE 6 9 30.06 1018 10 16.09344 0 0
3:55 pm 15:55 Sunny 73 23 53 11.7 49 49 N 7 11 30.06 1018 10 16.09344 0 0
4:15 pm 16:15 Sunny 74 23.2 53 11.6 48 48 N 7 11 30.06 1018 10 16.09344 0 0
4:35 pm 16:35 Sunny 75 24 52 11 44 44 NE 6 9 30.03 1017 10 16.09344 0 0
4:55 pm 16:55 Sunny 75 23.8 52 10.9 44 44 ENE 7 11 30.03 1017 10 16.09344 0 0
5:15 pm 17:15 Sunny 74 23.6 53 11.5 47 47 NE 6 9 30.03 1017 10 16.09344 0 0
5:35 pm 17:35 Sunny 74 23.5 53 11.5 47 47 ENE 9 15 30.03 1017 10 16.09344 0 0
5:55 pm 17:55 Sunny 74 23.6 54 12.2 49 49 NE 8 13 30.03 1017 10 16.09344 0 0
6:15 pm 18:15 Sunny 74 23.6 55 12.6 50 50 ENE 7 11 30.03 1017 10 16.09344 0 0
6:35 pm 18:35 Sunny 74 23.3 55 12.9 52 52 ENE 7 11 30.03 1017 10 16.09344 0 0
6:55 pm 18:55 Sunny 73 22.6 55 12.6 53 53 E 8 13 30.03 1017 10 16.09344 0 0
7:15 pm 19:15 Sunny 72 22.4 55 13 55 55 E 7 11 30.03 1017 10 16.09344 0 0
7:35 pm 19:35 Sunny 71 21.7 56 13.2 59 59 ENE 5 7 30.03 1017 10 16.09344 0 0
7:55 pm 19:55 Sunny 69 20.4 58 14.4 69 69 ENE 3 6 30.06 1018 10 16.09344 0 0
8:15 pm 20:15 Sunny 67 19.4 59 14.9 75 75 ENE 6 9 30.06 1018 10 16.09344 0 0
8:35 pm 20:35 Clear 65 18.4 58 14.5 78 78 ENE 5 7 30.06 1018 10 16.09344 0 0
8:55 pm 20:55 Clear 64 17.7 59 15 84 84 ENE 6 9 30.06 1018 10 16.09344 0 0
9:15 pm 21:15 Clear 63 17.2 58 14.2 83 83 E 6 9 30.12 1020 10 16.09344 0 0
9:35 pm 21:35 Clear 63 17 57 14.1 83 83 ENE 7 11 30.12 1020 10 16.09344 0 0
9:55 pm 21:55 Clear 63 17.1 57 14 82 82 E 7 11 30.12 1020 10 16.09344 0 0
10:15 pm 22:15 Clear 63 17.2 56 13.6 80 80 E 7 11 30.12 1020 10 16.09344 0 0
10:35 pm 22:35 Clear 62 16.5 56 13.4 82 82 E 8 13 30.12 1020 10 16.09344 0 0
10:55 pm 22:55 Clear 62 16.7 56 13.2 80 80 E 7 11 30.12 1020 10 16.09344 0 0
11:15 pm 23:15 Clear 61 16.1 56 13.3 84 84 E 7 11 30.12 1020 10 16.09344 0 0
11:35 pm 23:35 Clear 61 16 56 13.1 83 83 E 7 11 30.12 1020 10 16.09344 0 0
11:55 pm 23:55 Clear 59 15.1 55 13 87 87 E 5 7 30.15 1021 10 16.09344 0 0

Powered by AerisWeather